Photometre #394[NE_1.6] Lille AOT

File : 20221128_394.hum

28/11/2022,08:50:39,TEMP=8.2,BA=5.64,STAT.D=11.0,ExtBa=13.02
28/11/2022,09:05:39,TEMP=8.4,BA=5.64,STAT.D=11.5,ExtBa=13.02
28/11/2022,09:20:39,TEMP=8.7,BA=5.64,STAT.D=11.5,ExtBa=13.03
28/11/2022,09:35:41,TEMP=8.8,BA=5.64,STAT.F,ExtBa=12.99
28/11/2022,09:50:39,TEMP=8.9,BA=5.64,STAT.D=11.5,ExtBa=13.02
28/11/2022,10:05:39,TEMP=9.2,BA=5.64,STAT.D=11.5,ExtBa=13.02
28/11/2022,10:20:39,TEMP=9.9,BA=5.64,STAT.D=11.5,ExtBa=13.02
28/11/2022,10:35:41,TEMP=9.8,BA=5.64,STAT.F,ExtBa=13.00
28/11/2022,10:50:39,TEMP=9.9,BA=5.64,STAT.D=11.5,ExtBa=13.02
28/11/2022,11:05:39,TEMP=10.4,BA=5.64,STAT.D=11.5,ExtBa=13.02
28/11/2022,11:20:39,TEMP=10.4,BA=5.64,STAT.D=11.5,ExtBa=13.03
28/11/2022,11:35:41,TEMP=10.7,BA=5.64,STAT.F,ExtBa=13.00
28/11/2022,11:50:39,TEMP=10.9,BA=5.64,STAT.D=11.5,ExtBa=12.95
28/11/2022,12:05:39,TEMP=10.8,BA=5.64,STAT.D=11.5,ExtBa=13.10
28/11/2022,12:20:39,TEMP=10.9,BA=5.64,STAT.D=11.5,ExtBa=13.15
28/11/2022,12:35:41,TEMP=11.6,BA=5.64,STAT.F,ExtBa=13.13
28/11/2022,12:50:39,TEMP=11.3,BA=5.64,STAT.D=11.5,ExtBa=13.12
28/11/2022,13:05:39,TEMP=11.1,BA=5.64,STAT.D=11.5,ExtBa=13.10
28/11/2022,13:20:39,TEMP=11.2,BA=5.64,STAT.D=11.5,ExtBa=13.08
28/11/2022,13:35:40,TEMP=11.3,BA=5.64,STAT.F,ExtBa=13.05
28/11/2022,13:50:39,TEMP=11.8,BA=5.64,STAT.D=11.5,ExtBa=12.78
28/11/2022,14:05:39,TEMP=12.6,BA=5.64,STAT.D=11.5,ExtBa=13.07
28/11/2022,14:20:39,TEMP=12.0,BA=5.64,STAT.D=11.5,ExtBa=13.13